K1WJY Weather Reports


time (UTC)temp
C
wind
direction
speed
KPH
gust
KPH
rain 1hr
cm
rain 24hr
cm
rain mn
cm
humidity
%
barometer
mb
20260504231810 13 243 0.0 0.0 0.00 0.03 0.03 73 1008.5
20260504231306 13 190 0.0 0.0 0.00 0.03 0.03 72 1008.4
20260504230802 14 333 0.0 0.0 0.00 0.03 0.03 71 1008.5
20260504230300 14 264 0.0 0.0 0.00 0.03 0.03 70 1008.3
20260504225759 15 227 0.0 0.0 0.00 0.03 0.03 68 1008.0
20260504225254 15 125 0.0 0.0 0.00 0.03 0.03 69 1008.1
20260504224752 15 211 0.0 0.0 0.00 0.03 0.03 67 1008.0
20260504224249 15 213 1.6 1.6 0.00 0.03 0.03 67 1008.1
20260504223745 15 254 0.0 0.0 0.00 0.03 0.03 68 1008.0
20260504223241 15 157 3.2 3.2 0.00 0.03 0.03 67 1007.9
20260504222738 16 190 4.8 8.0 0.00 0.03 0.03 66 1007.9
20260504222235 16 221 1.6 1.6 0.00 0.03 0.03 66 1008.0
20260504221733 16 185 8.0 11.3 0.00 0.03 0.03 66 1007.9
20260504221229 16 286 0.0 0.0 0.00 0.03 0.03 68 1008.0
20260504220726 17 216 4.8 4.8 0.00 0.03 0.03 64 1007.6
20260504220223 17 200 3.2 4.8 0.00 0.03 0.03 63 1007.6
20260504215720 17 3 1.6 1.6 0.00 0.03 0.03 62 1007.6
20260504215217 17 227 3.2 3.2 0.00 0.03 0.03 62 1007.8
20260504214713 17 245 3.2 3.2 0.00 0.03 0.03 63 1007.6
20260504214210 17 281 0.0 0.0 0.00 0.03 0.03 63 1007.6
20260504213706 17 308 8.0 9.7 0.00 0.03 0.03 62 1007.6
20260504213203 17 187 4.8 8.0 0.00 0.03 0.03 62 1007.7
20260504212700 16 309 3.2 4.8 0.00 0.03 0.03 62 1007.6
20260504212156 17 291 0.0 1.6 0.00 0.03 0.03 64 1007.7
20260504211654 17 305 1.6 1.6 0.00 0.03 0.03 63 1007.7
20260504211150 16 273 11.3 16.1 0.00 0.03 0.03 63 1007.5
20260504210648 16 314 4.8 8.0 0.00 0.03 0.03 63 1007.5
20260504210144 16 247 9.7 12.9 0.00 0.03 0.03 63 1007.5
20260504205641 16 245 0.0 1.6 0.00 0.03 0.03 65 1007.5
20260504205138 16 268 3.2 3.2 0.00 0.03 0.03 65 1007.4
20260504204637 16 251 1.6 1.6 0.00 0.03 0.03 67 1007.5
20260504204136 15 308 8.0 9.7 0.00 0.03 0.03 67 1007.9
20260504203634 16 312 14.5 17.7 0.00 0.03 0.03 64 1007.6
20260504203131 16 282 0.0 1.6 0.00 0.03 0.03 68 1007.5
20260504202631 16 310 4.8 8.0 0.00 0.03 0.03 65 1007.5
20260504202129 16 232 6.4 8.0 0.00 0.03 0.03 65 1007.5
20260504201625 16 207 0.0 0.0 0.00 0.03 0.03 67 1007.4
20260504201123 16 322 4.8 8.0 0.00 0.03 0.03 67 1007.7
20260504200620 16 275 0.0 0.0 0.00 0.03 0.03 66 1007.3
20260504200116 16 293 3.2 3.2 0.00 0.03 0.03 68 1007.3
20260504195613 16 206 4.8 4.8 0.00 0.03 0.03 68 1007.4
20260504195109 15 323 4.8 8.0 0.00 0.03 0.03 68 1007.5
20260504194606 15 280 3.2 3.2 0.00 0.03 0.03 72 1007.5
20260504194101 15 256 6.4 11.3 0.00 0.03 0.03 72 1007.5
20260504193558 15 180 3.2 3.2 0.00 0.03 0.03 74 1007.6
20260504193057 13 278 1.6 3.2 0.00 0.03 0.03 74 1007.9
20260504192555 14 237 6.4 9.7 0.00 0.03 0.03 74 1007.8
20260504192052 12 296 3.2 3.2 0.00 0.03 0.03 79 1007.9
20260504191550 12 274 6.4 8.0 0.00 0.03 0.03 79 1007.8
20260504191046 12 257 3.2 3.2 0.00 0.03 0.03 81 1008.0
20260504190542 12 154 4.8 4.8 0.00 0.03 0.03 82 1008.1
20260504190039 12 190 8.0 9.7 0.00 0.03 0.03 82 1007.9
20260504185536 11 201 4.8 4.8 0.00 0.03 0.03 85 1007.8
20260504185032 11 129 1.6 3.2 0.00 0.03 0.03 83 1008.3
20260504184528 11 259 0.0 0.0 0.00 0.03 0.03 85 1008.5
20260504184023 11 189 3.2 4.8 0.00 0.03 0.03 84 1008.6
20260504183521 11 303 1.6 1.6 0.00 0.03 0.03 82 1008.5
20260504183019 11 281 4.8 4.8 0.18 0.03 0.03 82 1008.5
20260504182515 11 317 0.0 0.0 0.18 0.03 0.03 81 1008.5
20260504182013 12 252 4.8 4.8 0.00 0.00 0.00 79 1008.6
20260504181509 12 206 1.6 3.2 0.00 0.00 0.00 76 1008.4
20260504181008 12 246 0.0 1.6 0.00 0.00 0.00 77 1008.5
20260504180507 12 183 4.8 4.8 0.00 0.00 0.00 74 1008.4
20260504180005 12 297 4.8 4.8 0.00 0.00 0.00 75 1008.3
20260504175502 11 252 1.6 3.2 0.00 0.00 0.00 78 1008.4
20260504174959 11 264 1.6 1.6 0.00 0.00 0.00 76 1008.3
20260504174456 11 224 4.8 11.3 0.00 0.00 0.00 76 1008.1
20260504173953 11 220 6.4 9.7 0.00 0.00 0.00 77 1008.3
20260504173450 11 318 6.4 9.7 0.00 0.00 0.00 74 1008.2
20260504172947 11 196 4.8 4.8 0.00 0.00 0.00 73 1008.3
20260504172443 12 300 6.4 8.0 0.00 0.00 0.00 71 1008.0
20260504171940 12 163 3.2 3.2 0.00 0.00 0.00 74 1007.6
20260504171437 12 199 6.4 8.0 0.00 0.00 0.00 69 1007.5
20260504170934 12 248 9.7 12.9 0.00 0.00 0.00 67 1007.6
20260504170430 12 280 3.2 4.8 0.00 0.00 0.00 67 1007.5
20260504160349 13 119 4.8 4.8 0.00 0.00 0.00 57 1007.9
20260504150814 13 219 9.7 12.9 0.00 0.00 0.00 54 1008.6
20260504150310 13 202 8.0 8.0 0.00 0.00 0.00 55 1008.6
20260504141241 13 128 1.6 1.6 0.00 0.00 0.00 52 1009.0
20260504140737 13 163 3.2 3.2 0.00 0.00 0.00 53 1008.9
20260504140233 13 294 1.6 1.6 0.00 0.00 0.00 54 1009.1
20260504130702 11 308 6.4 8.0 0.00 0.00 0.00 54 1009.8
20260504130157 12 300 3.2 3.2 0.00 0.00 0.00 55 1009.8
20260504120122 9 321 4.8 4.8 0.00 0.00 0.00 64 1010.1
20260504110549 6 249 1.6 1.6 0.00 0.00 0.00 76 1009.9
20260504100511 2 281 0.0 1.6 0.00 0.00 0.00 90 1009.7
20260504081904 2 359 0.0 0.0 0.00 0.00 0.00 88 1008.7
20260504081401 2 352 0.0 0.0 0.00 0.00 0.00 89 1008.8
20260504080856 2 0 0.0 0.0 0.00 0.00 0.00 89 1008.9
20260504080354 2 352 0.0 0.0 0.00 0.00 0.00 88 1008.7
20260504070321 2 300 8.0 11.3 0.00 0.00 0.00 86 1008.7
20260504060241 1 352 0.0 0.0 0.00 0.00 0.00 95 1007.8
20260504050709 3 353 0.0 0.0 0.00 0.00 0.00 82 1007.6
20260504050206 3 5 0.0 1.6 0.00 0.00 0.00 82 1007.3
20260504045704 3 298 3.2 3.2 0.00 0.00 0.00 82 1007.6
20260504045203 3 353 0.0 0.0 0.00 0.00 0.00 82 1007.4
20260504044702 3 349 0.0 0.0 0.00 0.00 0.00 81 1007.5
20260504044159 4 344 1.6 3.2 0.00 0.00 0.00 80 1007.4
20260504043655 4 331 3.2 4.8 0.00 0.00 0.00 79 1007.2
20260504043152 4 328 1.6 3.2 0.00 0.00 0.00 80 1007.4
20260504042650 4 328 0.0 0.0 0.00 0.00 0.00 80 1007.1
20260504042146 4 321 0.0 1.6 0.00 0.00 0.00 78 1007.2
20260504041642 5 331 0.0 0.0 0.00 0.00 0.00 78 1007.2
20260504041138 5 304 3.2 3.2 0.00 0.00 0.00 77 1007.2
20260504040636 5 345 3.2 4.8 0.00 0.00 0.00 77 1007.0
20260504040133 5 316 4.8 8.0 0.00 0.00 0.00 77 1007.0
20260504035629 5 329 4.8 9.7 0.00 2.97 2.97 76 1007.1
20260504035126 5 273 1.6 3.2 0.00 2.97 2.97 76 1006.8
20260504034624 5 299 4.8 4.8 0.00 2.97 2.97 77 1007.2
20260504034120 5 339 4.8 4.8 0.00 2.97 2.97 77 1007.0
20260504033618 5 302 0.0 1.6 0.00 2.97 2.97 78 1007.0
20260504033115 5 41 0.0 1.6 0.00 2.97 2.97 78 1007.0
20260504032612 5 348 3.2 4.8 0.00 2.97 2.97 80 1007.0
20260504032109 5 283 6.4 11.3 0.00 2.97 2.97 78 1006.7
20260504031606 5 333 0.0 0.0 0.00 2.97 2.97 77 1006.7
20260504031102 5 337 3.2 4.8 0.00 2.97 2.97 79 1006.6
20260504030559 4 323 8.0 8.0 0.00 2.97 2.97 82 1006.6
20260504030056 5 338 0.0 1.6 0.00 2.97 2.97 80 1006.6
20260504025553 5 325 1.6 1.6 0.00 2.97 2.97 82 1006.4
20260504025050 4 346 6.4 11.3 0.00 2.97 2.97 83 1006.5
20260504024547 4 327 0.0 0.0 0.00 2.97 2.97 84 1006.2
20260504024044 5 351 0.0 1.6 0.00 2.97 2.97 82 1006.5
20260504023540 5 319 0.0 0.0 0.00 2.97 2.97 81 1006.5
20260504023036 5 322 0.0 1.6 0.00 2.97 2.97 80 1006.5
20260504022532 5 6 1.6 3.2 0.00 2.97 2.97 80 1006.4
20260504022029 5 324 3.2 3.2 0.00 2.97 2.97 82 1006.5
20260504021526 5 289 3.2 4.8 0.00 2.97 2.97 81 1006.2
20260504021023 5 320 1.6 1.6 0.00 2.97 2.97 82 1006.1
20260504020520 5 328 3.2 4.8 0.00 2.97 2.97 82 1006.2
20260504020017 5 302 4.8 8.0 0.00 2.97 2.97 83 1006.2
20260504015513 5 303 4.8 4.8 0.00 2.97 2.97 86 1006.2
20260504015009 5 317 3.2 3.2 0.00 2.97 2.97 88 1006.0
20260504014505 5 334 1.6 3.2 0.00 2.97 2.97 96 1006.0
20260504014003 5 345 6.4 8.0 0.00 2.97 2.97 99 1006.1
20260504013501 5 340 0.0 0.0 0.00 2.97 2.97 99 1005.9
20260504012956 5 336 0.0 0.0 0.00 2.97 2.97 99 1005.7
20260504012454 5 5 0.0 1.6 0.00 2.97 2.97 99 1005.9
20260504011952 5 355 0.0 0.0 0.00 2.97 2.97 99 1005.7
20260504011447 5 356 0.0 0.0 0.00 2.97 2.97 99 1005.7
20260504010944 5 356 0.0 0.0 0.00 2.97 2.97 99 1005.7
20260504010440 5 356 0.0 0.0 0.00 2.97 2.97 99 1005.9
20260504005936 5 356 0.0 0.0 0.00 2.97 2.97 99 1005.7
20260504005433 5 344 0.0 0.0 0.00 2.97 2.97 99 1005.5
20260504004931 5 333 0.0 0.0 0.00 2.97 2.97 99 1005.2
20260504004428 5 335 0.0 0.0 0.00 2.97 2.97 99 1005.3
20260504003925 6 343 0.0 0.0 0.00 2.97 2.97 99 1005.1
20260504003421 6 324 0.0 0.0 0.00 2.97 2.97 99 1005.1
20260504002918 6 340 0.0 0.0 0.00 2.97 2.97 99 1005.1
20260504002415 6 339 0.0 0.0 0.00 2.97 2.97 99 1004.9
20260504001913 6 0 0.0 0.0 0.00 2.97 2.97 99 1004.9
20260504001410 6 352 0.0 1.6 0.00 2.97 2.97 99 1005.1
20260504000906 6 344 0.0 0.0 0.00 2.97 2.97 99 1004.9
20260504000404 6 329 0.0 0.0 0.00 2.97 2.97 99 1004.7
20260503235901 6 2 0.0 0.0 0.00 2.97 2.97 99 1004.6
20260503235359 6 300 0.0 0.0 0.00 2.97 2.97 99 1004.6
20260503234856 6 348 0.0 0.0 0.00 2.97 2.97 99 1004.5
20260503234354 6 359 3.2 4.8 0.00 2.97 2.97 99 1004.3
20260503233851 6 358 0.0 0.0 0.00 2.97 2.97 99 1004.2
20260503233347 6 349 1.6 1.6 0.00 2.97 2.97 99 1004.3
20260503232844 6 47 4.8 9.7 0.00 2.97 2.97 99 1004.0
20260503232341 6 345 1.6 1.6 0.00 2.97 2.97 99 1004.2